Location: Bun Machan
(52.1403°N, 7.3744°W)
Time: 18:11:36
(UTC+00:00)

Cosmos 2360 Rocket - Pass Details

Date: 14 July 2020
Orbit: 832 x 846 km, 71.0° (Epoch: 12 August)

Event Time Altitude Azimuth Distance (km) Brightness Sun altitude
Rises 03:13:44 0° 329° (NNW) 3,419 5.7 -8.6°
Reaches altitude 10° 03:16:27 10° 340° (NNW) 2,481 5.1 -8.3°
Maximum altitude 03:21:33 33° 43° (NE) 1,399 4.3 -7.8°
Drops below altitude 10° 03:26:39 10° 107° (ESE) 2,470 4.9 -7.3°
Sets 03:29:20 0° 117° (ESE) 3,401 5.5 -7.1°
